Location: Slemon Park
(46.4340°N, 63.8219°W)
Time: 12:32:57
(UTC-03:00)

ISS - All Passes

Search period start: 31 July 2014 00:00
Search period end: 10 August 2014 00:00
Orbit: 411 x 419 km, 51.6° (Epoch: 31 July)

Date Brightness Start Highest point End Pass type
(mag) Time Alt. Az. Time Alt. Az. Time Alt. Az.
31 Jul - 00:00:00 34° E 23:59:45 39° E 00:02:10 10° ENE visible
31 Jul - 01:32:29 10° W 01:35:41 41° NNW 01:38:55 10° ENE visible
31 Jul - 03:09:48 10° WNW 03:12:54 33° N 03:16:00 10° ENE visible
31 Jul - 04:46:34 10° WNW 04:49:57 79° NNE 04:53:19 10° ESE visible
31 Jul - 06:23:52 10° W 06:26:21 19° SW 06:28:49 10° S daylight
31 Jul - 23:07:07 10° SSW 23:10:09 33° SE 23:13:11 10° ENE night (unlit)
01 Aug - 00:43:29 10° W 00:46:46 53° NNW 00:50:04 10° ENE visible
01 Aug - 02:20:52 10° WNW 02:23:56 32° N 02:27:00 10° ENE visible
01 Aug - 03:57:45 10° WNW 04:01:04 56° NNE 04:04:23 10° E visible
01 Aug - 05:34:40 10° WNW 05:37:40 30° SW 05:40:39 10° SSE daylight
01 Aug - 22:18:54 10° S 22:21:27 21° SE 22:24:01 10° E visible
01 Aug - 23:54:32 10° WSW 23:57:53 74° NNW 00:01:14 10° ENE visible
02 Aug - 01:31:51 10° WNW 01:34:56 33° N 01:38:02 10° ENE visible
02 Aug - 03:08:54 10° WNW 03:12:09 43° NNE 03:15:23 10° E visible
02 Aug - 04:45:39 10° WNW 04:48:55 48° SW 04:52:10 10° SE visible
02 Aug - 21:31:14 10° SSE 21:32:49 13° SE 21:34:23 10° ESE visible
02 Aug - 23:05:42 10° SW 23:09:01 76° SSE 23:12:23 10° ENE visible
03 Aug - 00:42:49 10° W 00:45:57 36° N 00:49:06 10° ENE visible
03 Aug - 02:20:02 10° WNW 02:23:11 36° N 02:26:20 10° E visible
03 Aug - 03:56:45 10° WNW 04:00:07 76° SSW 04:03:28 10° SE visible
03 Aug - 05:34:41 10° WSW 05:36:20 13° SW 05:38:00 10° SSW daylight
03 Aug - 22:17:00 10° SW 22:20:13 47° SE 22:23:27 10° ENE visible
03 Aug - 23:53:46 10° W 23:56:59 43° NNW 00:00:13 10° ENE visible
04 Aug - 01:31:06 10° WNW 01:34:11 33° N 01:37:16 10° ENE visible
04 Aug - 03:07:53 10° WNW 03:11:15 73° NNE 03:14:36 10° ESE visible
04 Aug - 04:45:04 10° W 04:47:41 21° SW 04:50:17 10° S visible
04 Aug - 21:28:30 10° SSW 21:31:27 30° SE 21:34:25 10° ENE visible
04 Aug - 23:04:44 10° W 23:08:02 56° NNW 23:11:21 10° ENE visible
05 Aug - 00:42:07 10° WNW 00:45:10 32° N 00:48:14 10° ENE visible
05 Aug - 02:19:01 10° WNW 02:22:20 52° NNE 02:25:37 10° E night (unlit)
05 Aug - 03:55:53 10° WNW 03:58:57 33° SW 04:02:01 10° SSE visible
05 Aug - 20:40:20 10° S 20:42:44 19° SE 20:45:09 10° E daylight
05 Aug - 22:15:47 10° WSW 22:19:07 79° NNW 22:22:29 10° ENE visible
05 Aug - 23:53:04 10° WNW 23:56:09 33° N 23:59:15 10° ENE visible
06 Aug - 01:30:09 10° WNW 01:33:22 41° NNE 01:36:34 10° E visible
06 Aug - 03:06:53 10° WNW 03:10:10 53° SSW 03:13:27 10° SE night (unlit)
06 Aug - 19:52:54 10° SSE 19:54:04 12° SE 19:55:15 10° ESE daylight
06 Aug - 21:26:56 10° SW 21:30:15 69° SSE 21:33:35 10° ENE visible
06 Aug - 23:03:59 10° W 23:07:08 37° N 23:10:18 10° ENE visible
07 Aug - 00:41:14 10° WNW 00:44:21 35° N 00:47:29 10° ENE visible
07 Aug - 02:17:57 10° WNW 02:21:19 83° SSW 02:24:40 10° ESE night (unlit)
07 Aug - 03:55:40 10° W 03:57:35 15° SW 03:59:30 10° S night (unlit)
07 Aug - 20:38:15 10° SW 20:41:25 43° SE 20:44:36 10° ENE daylight
07 Aug - 22:14:55 10° W 22:18:08 45° NNW 22:21:23 10° ENE visible
07 Aug - 23:52:16 10° WNW 23:55:20 32° N 23:58:24 10° ENE visible
08 Aug - 01:29:04 10° WNW 01:32:25 68° NNE 01:35:45 10° ESE visible
08 Aug - 03:06:09 10° W 03:08:53 23° SW 03:11:36 10° SSE night (unlit)
08 Aug - 19:49:47 10° SSW 19:52:38 27° SE 19:55:30 10° E daylight
08 Aug - 21:25:52 10° WSW 21:29:10 60° NNW 21:32:29 10° ENE visible
08 Aug - 23:03:14 10° WNW 23:06:17 32° N 23:09:21 10° ENE visible
09 Aug - 00:40:10 10° WNW 00:43:27 49° NNE 00:46:44 10° E visible
09 Aug - 02:17:00 10° WNW 02:20:07 36° SW 02:23:14 10° SSE night (unlit)
09 Aug - 19:01:40 10° S 19:03:54 17° SE 19:06:08 10° E daylight
09 Aug - 20:36:54 10° WSW 20:40:14 86° NNW 20:43:35 10° ENE daylight
09 Aug - 22:14:09 10° WNW 22:17:14 34° N 22:20:20 10° ENE visible
09 Aug - 23:51:16 10° WNW 23:54:27 39° NNE 23:57:38 10° E visible
